Tracking 29511 objects as of 17-Sep-2024
HD Live streaming from Space Station
objects crossing your sky now

STARLINK-5084

Track STARLINK-5084 now!
10-day predictions
STARLINK-5084 is classified as:


NORAD ID: 54851
Int'l Code: 2022-177AH
Perigee: 565.3 km
Apogee: 567.1 km
Inclination: 43.0 °
Period: 95.8 minutes
Semi major axis: 6937 km
RCS: Unknown
Launch date: December 28, 2022
Source: United States (US)
Launch site: AIR FORCE EASTERN TEST RANGE (AFETR)
Your satellite tracking list
Your tracking list is empty




NASA's NSSDC Master Catalog

Two Line Element Set (TLE):
1 54851U 22177AH  24260.10247942  .00001381  00000-0  11728-3 0  9990
2 54851  43.0036 172.6106 0001305 272.7268  87.3425 15.02535521 95931
Source of the keplerian elements: AFSPC